Location: East Township
(42.6998°N, 74.1010°W)
Time: 04:47:23
(UTC+00:00)

Daily predictions for brighter satellites

Satellite Brightness Start Highest point End
(mag) Time Altitude Azimuth Time Altitude Azimuth Time Altitude Azimuth
ISS -0.9 00:01:16 10° WNW 00:02:03 16° WNW 00:02:03 16° WNW
SL-16 R/B 3.2 00:01:51 10° NNW 00:05:04 34° N 00:05:04 34° N
USA 267 4.5 00:07:36 26° N 00:08:58 28° NNW 00:14:20 10° WNW
Cosmos 2082 Rocket 3.8 00:04:04 10° WSW 00:09:00 30° NW 00:11:58 19° N
ATLAS 5 CENTAUR R/B 4.1 00:06:11 10° NW 00:08:17 21° NW 00:08:17 21° NW
CZ-2C R/B 4.2 00:19:20 10° SW 00:19:38 11° SW 00:19:38 11° SW
Lacrosse 5 rocket 4.2 00:18:39 10° NW 00:18:55 12° NW 00:18:55 12° NW
CENTAUR R/B 3.4 08:51:33 42° NE 08:51:33 42° NE 08:56:04 10° NE
Cosmos 1943 Rocket 3.9 08:53:41 26° NE 08:53:41 26° NE 08:56:06 10° NNE
NOSS 3-2 (C) 3.7 09:13:27 56° NE 09:13:27 56° NE 09:18:25 10° NE
Cosmos 2344 3.7 09:14:06 56° NNW 09:14:06 56° NNW 09:20:46 10° NNE
Tsikada Rocket 3.8 09:27:13 10° S 09:33:25 86° W 09:39:44 10° N
SL-8 R/B 4.4 09:39:49 46° NNE 09:39:49 46° NNE 09:44:02 10° E
Meteor 2-3 Rocket 3.7 09:40:23 67° NNW 09:40:23 67° NNW 09:45:26 10° N
USA 238 DEB 3.6 09:40:07 61° NW 09:40:07 61° NW 09:46:54 10° NNE
USA 238 3.5 09:40:11 61° NW 09:40:13 61° NW 09:47:00 10° NNE
BREEZE-M DEB (TANK) 3.0 09:43:04 77° WNW 09:43:27 87° SSW 09:55:51 10° ESE
USA 215 3.8 09:41:26 10° ESE 09:47:41 51° NNE 09:50:34 31° NNW
Cosmos 1241 Rocket 4.3 09:49:45 60° W 09:50:30 65° WSW 09:56:37 10° SSE
Meteor 1-31 Rocket 4.0 09:48:05 10° NNE 09:51:49 42° E 09:55:31 10° S
Cosmos 921 Rocket 2.9 09:53:48 83° NNE 09:53:55 86° ENE 09:58:24 10° SSE
Cosmos 1782 4.4 09:57:34 24° S 09:57:34 24° S 09:59:14 10° S
Meteor 1-26 Rocket 4.2 09:56:03 37° NNW 09:58:25 68° W 10:04:05 10° S
Cosmos 2263 4.4 09:53:03 10° SSW 09:58:42 74° ESE 10:04:27 10° NNE
H-2A R/B 2.7 09:55:56 10° NNE 09:59:39 75° ESE 10:03:24 10° S
Cosmos 2208 Rocket 4.4 10:02:49 44° WSW 10:02:49 44° WSW 10:07:17 10° S
Cosmos 1867 4.2 10:03:11 37° SW 10:03:11 37° SW 10:07:28 10° S
Cosmos 1862 3.7 09:58:49 10° S 10:02:40 60° E 10:06:35 10° NNE
Okean 3 Rocket 4.1 10:00:22 10° S 10:04:49 62° E 10:09:20 10° NNE
Cosmos 1151 Rocket 3.0 10:05:51 25° N 10:08:22 81° E 10:12:44 10° S
Cosmos 1503 Rocket 4.4 10:03:38 10° S 10:08:48 63° ESE 10:14:05 10° NNE
Cosmos 2369 Rocket 2.0 10:05:54 21° SW 10:09:43 67° WNW 10:15:19 10° NNE
SL-19 R/B 4.2 10:06:54 10° S 10:12:28 66° WSW 10:16:12 21° NNW
SJ-12 3.8 10:09:12 10° N 10:13:21 75° WNW 10:17:27 10° SSW
Cosmos 1766 Rocket 3.4 10:09:32 10° S 10:13:53 87° E 10:18:14 10° N
Meteor 2-13 Rocket 4.3 10:08:24 10° SSW 10:14:26 63° W 10:20:29 10° N
Cosmos 1486 Rocket 3.9 10:10:55 10° SSW 10:16:11 66° WNW 10:21:27 10° NNE
BREEZE M DEB (TANK) 3.8 10:21:35 29° NNW 10:21:35 29° NNW 10:23:55 10° NE
Cosmos 1328 Rocket 3.5 10:20:35 11° N 10:24:52 85° E 10:29:12 10° S
Cosmos 1656 Rocket 3.5 10:20:47 10° SSW 10:26:09 67° WNW 10:31:35 10° NNE
Iridium 2 3.8 10:23:03 10° SSW 10:26:43 48° W 10:26:47 48° W
CZ-4B R/B 4.5 10:24:22 10° NNE 10:27:36 32° E 10:30:51 10° SSE
DNEPR-1 R/B 3.9 10:27:07 25° NW 10:30:02 89° WSW 10:35:54 10° SSE
COSMO-SKYMED 1 2.6 10:28:26 10° S 10:32:41 55° W 10:35:30 20° NNW
CZ-2C R/B 2.7 10:28:44 10° S 10:34:09 59° W 10:39:30 10° NNW
Cosmos 1943 Rocket 3.4 10:35:16 22° NW 10:35:16 22° NW 10:39:03 10° N
Envisat 3.2 10:34:53 10° N 10:39:45 47° WNW 10:44:35 10° SW
CENTAUR R/B 3.5 10:38:45 23° WNW 10:40:47 27° NNW 10:46:48 10° NNE
Cosmos 2098 Rocket 3.6 10:42:29 10° SW 10:46:04 34° WNW 10:50:30 10° N
Cosmos 1408 Rocket 3.4 10:43:47 10° S 10:48:04 86° W 10:52:24 10° N
DELTA 2 R/B (1) 3.9 10:47:14 15° WSW 10:51:47 61° S 10:57:15 10° E
Cosmos 1340 Rocket 3.6 10:49:38 10° S 10:53:29 54° E 10:57:23 10° NNE
Cosmos 2279 Rocket 4.1 10:47:58 10° NNW 10:53:54 50° W 10:59:49 10° SSW
Cosmos 1174 4.1 10:52:46 10° SSW 10:55:39 48° ESE 10:58:37 10° NE
SMAP 4.3 10:51:47 10° NNE 10:56:16 45° E 11:00:43 10° S
Cosmos 1743 Rocket 4.1 10:52:07 10° S 10:56:25 61° E 11:00:44 10° NNE
NOAA 11 4.1 10:55:10 10° N 11:00:37 70° WNW 11:06:04 10° SSW
Nadezhda 4 Rocket 3.9 10:56:08 10° S 11:02:18 83° W 11:08:34 10° N
Meteor 1-27 Rocket 3.8 10:56:46 10° N 11:02:27 87° E 11:08:13 10° S
CZ-4B R/B 3.3 11:00:36 10° SE 11:03:32 29° ENE 11:06:27 10° N
Cosmos 1812 4.1 11:03:50 18° W 11:04:10 18° W 11:06:48 10° SW
DMSP B5D1-3 4.5 10:59:20 10° S 11:04:29 79° WSW 11:09:40 10° NNW
Meteor 2-15 Rocket 4.4 10:58:58 10° N 11:05:03 80° W 11:11:06 10° S
Cosmos 1515 Rocket 3.5 11:02:20 10° NNW 11:06:39 62° W 11:10:55 10° S
Cosmos 1939 Rocket 3.0 11:03:14 10° NNE 11:07:10 73° E 11:11:02 10° S
ATLAS 3B R/B 3.0 11:01:59 10° SSW 11:08:25 69° ESE 11:15:10 10° NE
Cosmos 1354 Rocket 4.3 11:04:41 10° SW 11:09:44 46° WNW 11:14:52 10° N
SJ 16-02 1.3 11:06:14 10° SSW 11:10:37 86° WNW 11:15:01 10° NNE
Meteor PRIRODA 3.6 11:07:35 10° N 11:11:09 56° WNW 11:14:42 10° SSW
ADEOS 3.8 11:08:55 10° N 11:13:54 47° WNW 11:18:52 10° SW
Cosmos 1515 4.3 11:10:11 10° N 11:13:57 60° E 11:17:42 10° SSE
Cosmos 1092 Rocket 4.2 11:11:43 10° S 11:17:56 78° E 11:24:16 10° N
CZ-4C R/B 4.2 11:17:39 10° SW 11:20:04 20° W 11:22:18 11° NW
SL-8 R/B 3.8 11:17:47 12° WNW 11:22:08 70° SSW 11:26:52 10° SE
ATLAS 5 CENTAUR R/B 1.2 11:18:38 10° SW 11:22:25 74° NW 11:26:39 10° NNE
Cosmos 1500 Rocket 3.6 11:20:27 10° SSW 11:24:51 61° W 11:29:18 10° N
Meteor 1-31 Rocket 4.3 11:23:29 10° NNW 11:25:50 16° WNW 11:28:11 10° WSW
CZ-2C R/B 3.1 11:21:56 10° N 11:26:39 50° WNW 11:31:33 10° SW
Geosat FO 4.4 11:25:29 10° SSE 11:28:48 69° WSW 11:32:07 10° NNW
Okean 1 4.3 11:24:57 10° N 11:28:48 48° E 11:32:37 10° SSE
USA 215 3.6 11:24:16 10° SSE 11:30:39 55° SW 11:37:03 10° NW
Meteor 1-25 Rocket 4.3 11:25:59 10° S 11:31:37 89° ESE 11:37:14 10° N
COSMOS 2487 2.5 11:31:11 10° NNW 11:34:33 75° ENE 11:37:52 10° SSE
Sich 1 3.2 11:31:02 10° S 11:35:19 78° E 11:39:36 10° N
Cosmos 1805 Rocket 3.5 11:32:18 10° S 11:36:42 79° W 11:41:05 10° N
Alouette 2 Rocket 3.2 11:33:43 10° NNW 11:37:23 60° W 11:40:57 10° S
H-2A R/B 2.4 11:34:11 10° S 11:38:17 47° W 11:42:30 10° NNW
Cosmos 1538 Rocket 4.0 11:34:34 10° NNW 11:39:50 87° WSW 11:45:01 10° SSE
